SQ4LOL-15 Weather Reports


Display with metric or nautical units.
time (UTC)temp
F
wind
direction
speed
MPH
gust
MPH
rain 1hr
in
rain 24hr
in
rain mn
in
humidity
%
barometer
mb
20260506191136 0 0.0 0.0 0.00 0.00 0.00 10 1008.5
20260506190110 0 0.0 0.0 0.00 0.00 0.00 10 1008.4
20260506185048 0 0.0 0.0 0.00 0.00 0.00 10 1008.2
20260506184027 0 0.0 0.0 0.00 0.00 0.00 10 1008.1
20260506182953 0 0.0 0.0 0.00 0.00 0.00 10 1008.0
20260506181936 0 0.0 0.0 0.00 0.00 0.00 10 1007.8
20260506180920 0 0.0 0.0 0.00 0.00 0.00 10 1007.6
20260506175904 0 0.0 0.0 0.00 0.00 0.00 10 1007.5
20260506174850 0 0.0 0.0 0.00 0.00 0.00 10 1007.4
20260506173837 0 0.0 0.0 0.00 0.00 0.00 10 1007.3
20260506172825 0 0.0 0.0 0.00 0.00 0.00 10 1007.2
20260506171813 0 0.0 0.0 0.00 0.00 0.00 10 1007.1
20260506170802 0 0.0 0.0 0.00 0.00 0.00 83 677.6
20260506170107 0 0.0 0.0 0.00 0.00 0.00 10 1006.8
20260506165056 0 0.0 0.0 0.00 0.00 0.00 10 1006.7
20260506164045 0 0.0 0.0 0.00 0.00 0.00 10 1006.8
20260506163034 0 0.0 0.0 0.00 0.00 0.00 10 1006.7
20260506162023 0 0.0 0.0 0.00 0.00 0.00 10 1006.5
20260506161013 0 0.0 0.0 0.00 0.00 0.00 10 1006.5
20260506155959 0 0.0 0.0 0.00 0.00 0.00 10 1006.5
20260506154948 0 0.0 0.0 0.00 0.00 0.00 10 1006.5
20260506153938 0 0.0 0.0 0.00 0.00 0.00 10 1006.4
20260506152926 0 0.0 0.0 0.00 0.00 0.00 10 1006.4
20260506151916 0 0.0 0.0 0.00 0.00 0.00 10 1006.4
20260506150906 0 0.0 0.0 0.00 0.00 0.00 10 1006.4
20260506145857 0 0.0 0.0 0.00 0.00 0.00 10 1006.3
20260506144850 0 0.0 0.0 0.00 0.00 0.00 10 1006.3
20260506143839 0 0.0 0.0 0.00 0.00 0.00 10 1006.3
20260506142830 0 0.0 0.0 0.00 0.00 0.00 10 1006.3
20260506141821 0 0.0 0.0 0.00 0.00 0.00 10 1006.3
20260506140811 0 0.0 0.0 0.00 0.00 0.00 10 1006.2
20260506135801 0 0.0 0.0 0.00 0.00 0.00 10 1006.1
20260506134752 0 0.0 0.0 0.00 0.00 0.00 10 1006.2
20260506133742 0 0.0 0.0 0.00 0.00 0.00 10 1006.2
20260506132732 0 0.0 0.0 0.00 0.00 0.00 10 1006.2
20260506131723 0 0.0 0.0 0.00 0.00 0.00 95 1006.3
20260506130714 0 0.0 0.0 0.00 0.00 0.00 89 1006.2
20260506125705 0 0.0 0.0 0.00 0.00 0.00 90 1006.3
20260506124656 0 0.0 0.0 0.00 0.00 0.00 92 1006.1
20260506123647 0 0.0 0.0 0.00 0.00 0.00 96 1006.2
20260506122638 0 0.0 0.0 0.00 0.00 0.00 99 1006.2
20260506121629 0 0.0 0.0 0.00 0.00 0.00 97 1006.1
20260506120620 0 0.0 0.0 0.00 0.00 0.00 93 1006.3
20260506115611 0 0.0 0.0 0.00 0.00 0.00 94 1006.4
20260506114602 0 0.0 0.0 0.00 0.00 0.00 91 1006.5
20260506113553 0 0.0 0.0 0.00 0.00 0.00 86 1006.6
20260506112544 0 0.0 0.0 0.00 0.00 0.00 92 1007.0
20260506111535 0 0.0 0.0 0.00 0.00 0.00 84 1006.9
20260506110526 0 0.0 0.0 0.00 0.00 0.00 93 1007.0
20260506105517 0 0.0 0.0 0.00 0.00 0.00 10 1007.0
20260506104508 0 0.0 0.0 0.00 0.00 0.00 10 1007.1
20260506103458 0 0.0 0.0 0.00 0.00 0.00 10 1007.2
20260506102448 0 0.0 0.0 0.00 0.00 0.00 10 1007.3
20260506101438 0 0.0 0.0 0.00 0.00 0.00 10 1007.4
20260506100428 0 0.0 0.0 0.00 0.00 0.00 10 1007.5
20260506095418 0 0.0 0.0 0.00 0.00 0.00 10 1007.5
20260506094404 0 0.0 0.0 0.00 0.00 0.00 10 1007.6
20260506093353 0 0.0 0.0 0.00 0.00 0.00 10 1007.6
20260506092341 0 0.0 0.0 0.00 0.00 0.00 10 1007.7
20260506091323 0 0.0 0.0 0.00 0.00 0.00 10 1007.9
20260506090311 0 0.0 0.0 0.00 0.00 0.00 10 1008.0
20260506085258 0 0.0 0.0 0.00 0.00 0.00 10 1008.0
20260506084245 0 0.0 0.0 0.00 0.00 0.00 10 1008.0
20260506083231 0 0.0 0.0 0.00 0.00 0.00 10 1008.0
20260506082217 0 0.0 0.0 0.00 0.00 0.00 10 1008.1
20260506081205 0 0.0 0.0 0.00 0.00 0.00 10 1008.1
20260506080145 0 0.0 0.0 0.00 0.00 0.00 10 1008.3
20260506073050 0 0.0 0.0 0.00 0.00 0.00 10 1008.7
20260506072028 0 0.0 0.0 0.00 0.00 0.00 10 1008.8
20260506071003 0 0.0 0.0 0.00 0.00 0.00 10 1008.9
20260506061834 0 0.0 0.0 0.00 0.00 0.00 10 1009.2
20260506060731 0 0.0 0.0 0.00 0.00 0.00 10 1009.3
20260506050719 0 0.0 0.0 0.00 0.00 0.00 10 1009.5
20260506044606 0 0.0 0.0 0.00 0.00 0.00 10 1009.5
20260506043604 0 0.0 0.0 0.00 0.00 0.00 10 1009.5
20260506042602 0 0.0 0.0 0.00 0.00 0.00 10 1009.5
20260506041600 0 0.0 0.0 0.00 0.00 0.00 10 1009.4
20260506040558 0 0.0 0.0 0.00 0.00 0.00 10 1009.2
20260506035556 0 0.0 0.0 0.00 0.00 0.00 10 1009.3
20260506034554 0 0.0 0.0 0.00 0.00 0.00 10 1009.3
20260506033552 0 0.0 0.0 0.00 0.00 0.00 10 1009.2
20260506032550 0 0.0 0.0 0.00 0.00 0.00 10 1009.2
20260506031548 0 0.0 0.0 0.00 0.00 0.00 10 1009.2
20260506030546 0 0.0 0.0 0.00 0.00 0.00 10 1009.3
20260506025544 0 0.0 0.0 0.00 0.00 0.00 10 1009.3
20260506024542 0 0.0 0.0 0.00 0.00 0.00 10 1009.3
20260506023540 0 0.0 0.0 0.00 0.00 0.00 10 1009.4
20260506022538 0 0.0 0.0 0.00 0.00 0.00 10 1009.4
20260506021536 0 0.0 0.0 0.00 0.00 0.00 10 1009.2
20260506020534 0 0.0 0.0 0.00 0.00 0.00 10 1009.2
20260506015532 0 0.0 0.0 0.00 0.00 0.00 10 1009.0
20260506014530 0 0.0 0.0 0.00 0.00 0.00 10 1009.0
20260506013528 0 0.0 0.0 0.00 0.00 0.00 10 1009.0
20260506012526 0 0.0 0.0 0.00 0.00 0.00 10 1008.9
20260506011524 0 0.0 0.0 0.00 0.00 0.00 10 1008.9
20260506010522 0 0.0 0.0 0.00 0.00 0.00 10 1008.9
20260506005520 0 0.0 0.0 0.00 0.00 0.00 10 1008.8
20260506004518 0 0.0 0.0 0.00 0.00 0.00 10 1008.8
20260506003516 0 0.0 0.0 0.00 0.00 0.00 10 1008.7
20260506002359 0 0.0 0.0 0.00 0.00 0.00 10 1008.8
20260506001357 0 0.0 0.0 0.00 0.00 0.00 10 1008.8
20260506000355 0 0.0 0.0 0.00 0.00 0.00 10 1008.7
20260505235353 0 0.0 0.0 0.00 0.00 0.00 10 1008.8
20260505234130 0 0.0 0.0 0.00 0.00 0.00 10 1008.7
20260505233128 0 0.0 0.0 0.00 0.00 0.00 10 1008.9
20260505232126 0 0.0 0.0 0.00 0.00 0.00 10 1008.9
20260505231042 0 0.0 0.0 0.00 0.00 0.00 10 1008.9
20260505230003 0 0.0 0.0 0.00 0.00 0.00 10 1008.9
20260505225001 0 0.0 0.0 0.00 0.00 0.00 10 1009.1
20260505223925 0 0.0 0.0 0.00 0.00 0.00 10 1009.0
20260505222850 0 0.0 0.0 0.00 0.00 0.00 10 1008.9
20260505221817 0 0.0 0.0 0.00 0.00 0.00 10 1009.0
20260505220746 0 0.0 0.0 0.00 0.00 0.00 10 1009.1
20260505215744 0 0.0 0.0 0.00 0.00 0.00 10 1009.0
20260505214715 0 0.0 0.0 0.00 0.00 0.00 10 1009.0
20260505213643 0 0.0 0.0 0.00 0.00 0.00 10 1009.1
20260505212617 0 0.0 0.0 0.00 0.00 0.00 10 1009.1
20260505211554 0 0.0 0.0 0.00 0.00 0.00 10 1009.2
20260505210528 0 0.0 0.0 0.00 0.00 0.00 10 1009.1
20260505205501 0 0.0 0.0 0.00 0.00 0.00 10 1008.9
20260505204440 0 0.0 0.0 0.00 0.00 0.00 10 1008.8
20260505203417 0 0.0 0.0 0.00 0.00 0.00 10 1008.8
20260505202355 0 0.0 0.0 0.00 0.00 0.00 10 1008.9
20260505201333 0 0.0 0.0 0.00 0.00 0.00 10 1008.9
20260505200310 0 0.0 0.0 0.00 0.00 0.00 10 1008.8
20260505195249 0 0.0 0.0 0.00 0.00 0.00 10 1008.8
20260505194208 0 0.0 0.0 0.00 0.00 0.00 10 1008.9
20260505193148 0 0.0 0.0 0.00 0.00 0.00 10 1008.8
20260505192130 0 0.0 0.0 0.00 0.00 0.00 10 1008.8